Overview Statistics Trail Chart Weather Telemetry Raw packets
 

This is the latest recevied weather packets stored in our database for station/object W8RSN-13. If no packets are shown the sender has not sent any weather packets the latest 10 day(s).

<< 100 101 102 103 104 105 106 >>
Time Temp. Humidity Pressure Rain* Wind** Luminosity Snow
1787933961 30.56° C 49% 1015 hPa - - - -
1787933660 30.56° C 49% 1015 hPa - - - -
1787933359 30.56° C 50% 1014.8 hPa - - - -
1787933058 30° C 50% 1015.1 hPa - - - -
1787932758 30° C 50% 1015 hPa - - - -
1787932457 30° C 51% 1015.1 hPa - - - -
1787932156 29.44° C 51% 1015 hPa - - - -
1787931875 29.44° C 51% 1014.8 hPa - - - -
1787931574 29.44° C 51% 1014.9 hPa - - - -
1787931273 30° C 51% 1014.7 hPa - - - -
1787930972 29.44° C 52% 1014.9 hPa - - - -
1787930671 28.89° C 52% 1014.9 hPa - - - -
1787930370 28.33° C 53% 1014.8 hPa - - - -
1787930069 28.33° C 55% 1014.9 hPa - - - -
1787929769 27.78° C 55% 1014.8 hPa - - - -
1787929468 27.78° C 55% 1015 hPa - - - -
1787929167 27.78° C 56% 1014.9 hPa - - - -
1787928866 27.22° C 57% 1014.9 hPa - - - -
1787928565 26.67° C 57% 1014.8 hPa - - - -
1787928264 26.67° C 57% 1014.6 hPa - - - -
1787927963 26.67° C 57% 1014.5 hPa - - - -
1787927662 27.22° C 56% 1014.5 hPa - - - -
1787927361 27.22° C 56% 1014.5 hPa - - - -
1787927061 26.67° C 58% 1014.5 hPa - - - -
1787926760 26.11° C 59% 1014.5 hPa - - - -

* Rain since midnight (hover to see other rain measurements)
** Current wind speed in m/s (hover to see current wind gust speed)